Погода в Волове

Россия / Липецкая область     52°01′27″N   37°53′26″E
темп.,
°C
ветер,
м/с
пор.,
м/с
влажн.,
%
обл.,
%
осадки,
мм/ч
давл.,
гПа
погр.,
м
20 июня, вс
вс2000:00+15вюв34860 0.0 102452
03:00+14в34910 0.0 102459
06:00+15в37890 0.0 1023170
09:00+20в56720 0.0 1023478
12:00+23вюв56615 0.0 1022915
15:00+25вюв4657100 0.0 10211118
18:00+24вюв4771100 0.0 1020457
21:00+19в3485100 0.0 102150
21 июня, пн
пн2100:00+17в4788100 0.0 102099
03:00+16в4989100 0.0 1020141
06:00+17в41184100 0.0 1020241
09:00+22вюв5971100 0.0 1020414
12:00+25вюв6863100 0.0 1020591
15:00+27вюв486395 0.0 1019736
18:00+26в487313 0.0 1019558
21:00+21в48833 0.0 1019126
22 июня, вт
вт2200:00+19в410900 0.0 1019163
03:00+18вюв412915 0.0 1020194
06:00+19в412865 0.0 1020262
09:00+24вюв5117371 0.0 1020436
12:00+28вюв6861100 0.0 1020786
15:00+29вюв586192 0.0 10191204
18:00+28вюв47715 0.0 1019482
21:00+23в49845 0.0 1020143
23 июня, ср
ср2300:00+21в48825 0.0 1019120
03:00+19в4885100 0.0 1020133
06:00+20всв4108733 0.0 1020203
09:00+25в697270 0.0 1019403
12:00+28вюв5660100 0.0 1020702
15:00+29в445574 0.0 1019853
18:00+29в246752 0.0 1019446
21:00+24в2279100 0.0 102011
24 июня, чт
чт2400:00+22юв118080 0.0 102011
03:00+21всв118297 0.0 102011
06:00+22всв348468 0.0 102076
09:00+27в236846 0.0 1020352
12:00+30вюв225879 0.0 1020882
15:00+30вюв115398 0.0 10201263
18:00+30вюв116269 0.0 10191251
21:00+24вюв117367 0.0 101911